Regional Weather Roundup
Issued by NWS Goodland, KS

Home | Current Version | Previous Version | Graphics & Text | Print | Product List | Glossary On
Versions: 1 2 3 4 5 6 7 8 9 10 11 12 13 14 15 16 17 18 19 20 21 22 23 24 25 26 27 28 29 30 31 32 33 34 35 36 37 38 39 40 41 42 43 44 45 46 47 48 49 50
000
ASUS43 KGLD 162208
RWRGLD

GOODLAND FORECAST AREA HOURLY WEATHER ROUNDUP
NATIONAL WEATHER SERVICE GOODLAND KS
300 PM MST MON JAN 16 2017

...OFFICIAL OBSERVATIONS...

CITY           SKY/WX    TMP DP  RH WIND       PRES   REMARKS
GOODLAND KS    CLOUDY    32  31  96 N20G33    29.97R
HILL CITY KS   CLOUDY    34  34 100 N14       29.95R FOG
IMPERIAL NEB   CLOUDY    35  28  75 NW16      30.00R
MCCOOK NEB     CLOUDY    35  33  92 N14       29.97R FOG
AKRON CO       NOT AVBL
BURLINGTON CO  CLOUDY    33  30  88 N21G30    29.99R FOG
LIMON CO       CLOUDY    31  28  89 N21G28    30.03R WCI  18
$$

...UNOFFICIAL OBSERVATIONS...

CITY           SKY/WX    TMP DP  RH WIND       PRES   REMARKS
LENORA KS        N/A     33  32  96 CALM        N/A
NORTON KS      MIX PCPN  34  30  86 NW12      29.95R
SHARON SPRINGS   N/A     33  31  93 N16G25      N/A
TRENTON NEB      N/A     33  32  96 CALM        N/A
KIT CARSON CO    N/A     32  29  88 CALM        N/A
YUMA CO        CLOUDY    32  21  64 NW14      30.03R
$$




USA.gov is the U.S. government's official web portal to all federal, state and local government web resources and services.